Location: Poughquag
(41.6090°N, 73.6820°W)
Time: 03:41:58
(UTC-04:00)

Vanguard 2 - Pass Details

Date: 31 May 2020
Orbit: 552 x 2938 km, 32.9° (Epoch: 06 July)

Event Time Altitude Azimuth Distance (km) Brightness Sun altitude
Rises 20:01:08 0° 241° (WSW) 6,133 12.6 2.6°
Reaches altitude 10° 20:05:56 10° 236° (SW) 4,781 12.0 1.8°
Maximum altitude 20:17:21 43° 171° (S) 2,084 9.5 0.0°
Drops below altitude 10° 20:24:28 10° 103° (ESE) 3,004 10.0 -1.2°
Sets 20:26:48 0° 96° (E) 3,713 10.5 -1.6°
